Location: Bosdarros
(43.2167°N, 0.3667°W)
Time: 16:25:38
(UTC+00:00)

Lacrosse 5 rocket - Pass Details

Date: 22 April 2021
Orbit: 460 x 634 km, 57.0° (Epoch: 12 May)

Event Time Altitude Azimuth Distance (km) Brightness Sun altitude
Rises 20:40:41 0° 312° (NW) 2,729 6.6 -18.1°
Reaches altitude 10° 20:43:51 10° 338° (NNW) 1,876 4.9 -18.6°
Maximum altitude 20:46:09 14° 11° (N) 1,655 4.1 -18.9°
Drops below altitude 10° 20:48:29 10° 43° (NE) 1,930 4.1 -19.2°
Enters shadow 20:49:55 - 57° (ENE) 2,284 4.3 -19.4°
